Weather History for Glendive, MT

Change the Weather History Date:

Saturday, June 7, 2014

  Actual Average Record
Temperature  
Mean Temperature 52 °F -  
Max Temperature 66 °F 68 °F 87 °F (1997)
Min Temperature 39 °F 47 °F 39 °F (2014)
Degree Days  
Heating Degree Days 12    
Growing Degree Days 2 (Base 50)    
Moisture  
Dew Point 40 °F    
Average Humidity 60    
Maximum Humidity 93    
Minimum Humidity 37    
Precipitation  
Precipitation 0.00 in - - ()
Sea Level Pressure  
Sea Level Pressure 30.13 in    
Wind  
Wind Speed 6 mph (South)    
Max Wind Speed 13 mph    
Max Gust Speed 18 mph    
Visibility 10 miles    
Events      
Averages and records for this station are not official NWS values.
T = Trace of Precipitation, MM = Missing Value Source: NWS Daily Summary

Daily Weather History Graph

Daily Weather History Graph

Search for Another Location

Airport:

Trip Planner

Search our weather history database for the weather conditions in past years. The results will help you decide how hot, cold, wet, or windy it might be!

Date:

Astronomy

Jun. 07, 2014 Rise Set
Actual Time 5:04 AM MDT 8:52 PM MDT
Civil Twilight 4:25 AM MDT 9:31 PM MDT
Nautical Twilight 3:31 AM MDT 10:25 PM MDT
Astronomical Twilight 2:14 AM MDT 11:43 PM MDT
Moon 2:51 PM MDT (6/7) 1:50 AM MDT (6/7)
Length of Visible Light 17h 06m
Length of Day
15h 47m
Waxing Gibbous, 68% of the Moon is Illuminated
Jun 7
Waxing Gibbous
Jun 12
Full
Jun 19
Last Quarter
Jun 27
New
Jul 5
First Quarter

Hourly Weather History & Observations

Time (MDT) Temp. Windchill Dew Point Humidity Pressure Visibility Wind Dir Wind Speed Gust Speed Precip Events Conditions
12:15 AM 44.6 °F 40.7 °F 42.8 °F 93% 30.18 in 10.0 mi SW 6.9 mph - N/A   Partly Cloudy
12:35 AM 44.6 °F 40.2 °F 42.8 °F 93% 30.18 in 10.0 mi SW 8.1 mph - N/A   Clear
12:55 AM 44.6 °F 40.7 °F 39.2 °F 81% 30.17 in 10.0 mi SW 6.9 mph - N/A   Clear
1:15 AM 44.6 °F 40.2 °F 39.2 °F 81% 30.17 in 10.0 mi SW 8.1 mph - N/A   Clear
1:35 AM 42.8 °F 38.6 °F 39.2 °F 87% 30.18 in 10.0 mi SSW 6.9 mph - N/A   Clear
1:55 AM 42.8 °F 38.0 °F 39.2 °F 87% 30.18 in 10.0 mi SSW 8.1 mph - N/A   Clear
2:15 AM 41.0 °F 35.8 °F 39.2 °F 93% 30.18 in 10.0 mi South 8.1 mph - N/A   Clear
2:35 AM 41.0 °F 35.8 °F 39.2 °F 93% 30.19 in 10.0 mi SW 8.1 mph - N/A   Clear
2:55 AM 42.8 °F 38.6 °F 39.2 °F 87% 30.19 in 10.0 mi WSW 6.9 mph - N/A   Clear
3:15 AM 41.0 °F 39.0 °F 39.2 °F 93% 30.19 in 10.0 mi South 3.5 mph - N/A   Clear
3:35 AM 41.0 °F 39.0 °F 37.4 °F 87% 30.19 in 10.0 mi South 3.5 mph - N/A   Clear
3:55 AM 41.0 °F - 39.2 °F 93% 30.19 in 10.0 mi Calm Calm - N/A   Clear
4:15 AM 39.2 °F 35.9 °F 37.4 °F 93% 30.19 in 10.0 mi SSW 4.6 mph - N/A   Clear
4:35 AM 39.2 °F 35.0 °F 37.4 °F 93% 30.18 in 9.0 mi South 5.8 mph - N/A   Clear
4:55 AM 39.2 °F 35.0 °F 37.4 °F 93% 30.18 in 10.0 mi SSW 5.8 mph - N/A   Clear
5:15 AM 39.2 °F 35.0 °F 37.4 °F 93% 30.18 in 10.0 mi WSW 5.8 mph - N/A   Clear
5:35 AM 39.2 °F 37.0 °F 37.4 °F 93% 30.18 in 10.0 mi SW 3.5 mph - N/A   Clear
6:15 AM 44.6 °F - 41.0 °F 87% 30.19 in 10.0 mi Calm Calm - N/A   Clear
6:55 AM 48.2 °F - 42.8 °F 82% 30.19 in 10.0 mi Calm Calm - N/A   Clear
7:15 AM 48.2 °F - 41.0 °F 76% 30.19 in 10.0 mi Calm Calm - N/A   Clear
7:35 AM 50.0 °F - 42.8 °F 76% 30.19 in 10.0 mi Calm Calm - N/A   Clear
7:55 AM 51.8 °F - 42.8 °F 71% 30.20 in 10.0 mi SW 3.5 mph - N/A   Clear
8:15 AM 51.8 °F - 42.8 °F 71% 30.20 in 10.0 mi SSE 4.6 mph - N/A   Clear
8:35 AM 53.6 °F - 42.8 °F 67% 30.19 in 10.0 mi SE 4.6 mph - N/A   Clear
8:55 AM 55.4 °F - 44.6 °F 67% 30.19 in 10.0 mi Calm Calm - N/A   Clear
9:15 AM 53.6 °F - 42.8 °F 67% 30.19 in 10.0 mi WNW 3.5 mph - N/A   Clear
9:35 AM 55.4 °F - 42.8 °F 63% 30.18 in 10.0 mi Calm Calm - N/A   Clear
9:55 AM 59.0 °F - 39.2 °F 48% 30.17 in 10.0 mi Calm Calm - N/A   Partly Cloudy
10:15 AM 57.2 °F - 39.2 °F 51% 30.17 in 10.0 mi NW 3.5 mph - N/A   Clear
10:35 AM 60.8 °F - 41.0 °F 48% 30.17 in 10.0 mi SSE 8.1 mph - N/A   Mostly Cloudy
10:55 AM 60.8 °F - 39.2 °F 45% 30.17 in 10.0 mi SSE 10.4 mph - N/A   Mostly Cloudy
11:15 AM 60.8 °F - 37.4 °F 42% 30.16 in 10.0 mi SSE 5.8 mph - N/A   Clear
11:35 AM 60.8 °F - 37.4 °F 42% 30.16 in 10.0 mi ESE 4.6 mph - N/A   Clear
11:55 AM 62.6 °F - 37.4 °F 39% 30.15 in 10.0 mi SSW 3.5 mph - N/A   Clear
12:15 PM 62.6 °F - 35.6 °F 37% 30.15 in 10.0 mi SW 5.8 mph - N/A   Clear
12:35 PM 62.6 °F - 37.4 °F 39% 30.14 in 10.0 mi SW 5.8 mph - N/A   Clear
12:55 PM 62.6 °F - 37.4 °F 39% 30.13 in 10.0 mi South 5.8 mph - N/A   Clear
1:15 PM 64.4 °F - 39.2 °F 40% 30.13 in 10.0 mi SSW 9.2 mph - N/A   Partly Cloudy
1:35 PM 62.6 °F - 37.4 °F 39% 30.12 in 10.0 mi South 4.6 mph - N/A   Partly Cloudy
1:55 PM 62.6 °F - 39.2 °F 42% 30.12 in 10.0 mi Calm Calm - N/A   Partly Cloudy
2:15 PM 64.4 °F - 39.2 °F 40% 30.11 in 10.0 mi SSE 5.8 mph - N/A   Scattered Clouds
2:35 PM 62.6 °F - 37.4 °F 39% 30.11 in 10.0 mi SSE 9.2 mph - N/A   Overcast
2:55 PM 66.2 °F - 39.2 °F 37% 30.10 in 10.0 mi SW 10.4 mph - N/A   Mostly Cloudy
3:15 PM 64.4 °F - 37.4 °F 37% 30.10 in 10.0 mi South 5.8 mph 18.4 mph N/A   Scattered Clouds
3:35 PM 64.4 °F - 39.2 °F 40% 30.10 in 10.0 mi SW 9.2 mph - N/A   Partly Cloudy
3:55 PM 62.6 °F - 39.2 °F 42% 30.09 in 10.0 mi SSE 10.4 mph - N/A   Scattered Clouds
4:15 PM 64.4 °F - 39.2 °F 40% 30.09 in 10.0 mi South 6.9 mph - N/A   Partly Cloudy
4:35 PM 64.4 °F - 39.2 °F 40% 30.08 in 10.0 mi SSW 4.6 mph - N/A   Scattered Clouds
4:55 PM 64.4 °F - 37.4 °F 37% 30.08 in 10.0 mi South 5.8 mph - N/A   Mostly Cloudy
5:15 PM 66.2 °F - 39.2 °F 37% 30.08 in 10.0 mi South 12.7 mph - N/A   Scattered Clouds
5:35 PM 64.4 °F - 39.2 °F 40% 30.07 in 10.0 mi SSW 9.2 mph - N/A   Clear
5:55 PM 66.2 °F - 39.2 °F 37% 30.07 in 10.0 mi SSW 6.9 mph - N/A   Clear
6:15 PM 64.4 °F - 39.2 °F 40% 30.06 in 10.0 mi SSE 12.7 mph - N/A   Clear
6:35 PM 64.4 °F - 39.2 °F 40% 30.07 in 10.0 mi South 8.1 mph - N/A   Clear
6:55 PM 64.4 °F - 39.2 °F 40% 30.06 in 10.0 mi South 8.1 mph - N/A   Clear
7:15 PM 62.6 °F - 37.4 °F 39% 30.06 in 10.0 mi South 8.1 mph - N/A   Clear
7:35 PM 60.8 °F - 39.2 °F 45% 30.06 in 10.0 mi South 6.9 mph - N/A   Clear
7:55 PM 59.0 °F - 41.0 °F 51% 30.06 in 10.0 mi SSW 6.9 mph - N/A   Clear
8:15 PM 57.2 °F - 42.8 °F 59% 30.06 in 10.0 mi SSW 5.8 mph - N/A   Clear
8:35 PM 57.2 °F - 41.0 °F 55% 30.06 in 10.0 mi South 5.8 mph - N/A   Clear
8:55 PM 55.4 °F - 39.2 °F 54% 30.06 in 10.0 mi South 4.6 mph - N/A   Clear
9:15 PM 55.4 °F - 39.2 °F 54% 30.07 in 10.0 mi South 4.6 mph - N/A   Clear
9:35 PM 55.4 °F - 39.2 °F 54% 30.08 in 10.0 mi SSW 3.5 mph - N/A   Clear
9:55 PM 55.4 °F - 39.2 °F 54% 30.08 in 10.0 mi South 3.5 mph - N/A   Clear
10:15 PM 55.4 °F - 39.2 °F 54% 30.08 in 10.0 mi SSE 3.5 mph - N/A   Clear
10:35 PM 57.2 °F - 39.2 °F 51% 30.08 in 10.0 mi SSE 3.5 mph - N/A   Clear
10:55 PM 57.2 °F - 41.0 °F 55% 30.08 in 10.0 mi SSE 4.6 mph - N/A   Scattered Clouds
11:15 PM 55.4 °F - 41.0 °F 58% 30.08 in 10.0 mi SSE 5.8 mph - N/A   Scattered Clouds
11:35 PM 55.4 °F - 41.0 °F 58% 30.07 in 10.0 mi SSE 6.9 mph - N/A   Scattered Clouds
11:55 PM 53.6 °F - 42.8 °F 67% 30.06 in 10.0 mi SSE 5.8 mph - N/A   Clear